Location: Pisciacavallo
(42.0500°N, 12.3667°E)
Time: 06:27:11
(UTC+00:00)

Daily predictions for brighter satellites

Satellite Brightness Start Highest point End
(mag) Time Altitude Azimuth Time Altitude Azimuth Time Altitude Azimuth
Cosmos 1992 Rocket 4.0 18:02:45 10° NNW 18:07:59 87° ENE 18:13:11 10° SSE
ADEOS Rocket 3.6 18:07:29 10° N 18:13:41 64° WNW 18:19:18 10° SSW
IRIDIUM 106 4.5 18:11:38 10° N 18:16:47 55° E 18:21:53 10° SSE
GEOS 3 Rocket 3.7 18:12:07 10° SE 18:17:12 67° NE 18:22:24 10° NNW
Aureole 3 4.2 18:12:37 10° S 18:17:23 86° W 18:23:33 10° N
Cosmos 292 Rocket 4.4 18:14:26 10° NNW 18:19:12 62° WSW 18:23:56 10° S
YAOGAN 1 4.0 18:15:50 10° S 18:19:55 41° W 18:24:02 10° NNW
COSMOS 2455 4.1 18:16:24 10° N 18:21:23 26° NE 18:26:20 10° E
ISS -1.2 18:21:37 10° W 18:23:57 18° SW 18:26:16 10° S
SL-08 RB Rocket 4.4 18:25:36 10° SE 18:29:44 35° ENE 18:33:55 10° N
NOSS 3-4 (A) 4.1 18:23:40 10° NNW 18:30:32 55° NE 18:37:47 11° SE
NOSS 3-4 (C) 4.1 18:23:47 10° NNW 18:30:39 54° NE 18:37:50 11° SE
Cosmos 1818 4.0 18:25:57 10° SW 18:31:20 67° NW 18:36:47 10° NNE
Cosmos 1437 2.5 18:32:05 10° N 18:35:07 86° W 18:38:06 10° S
FALCON 9 DEB 3.2 18:33:00 10° SW 18:36:26 58° SE 18:39:53 10° ENE
Cosmos 2058 Rocket 3.7 18:34:50 10° SSE 18:38:56 36° E 18:43:04 10° NNE
ATLAS 5 CENTAUR R/B 1.5 18:35:11 10° SSW 18:39:09 56° ESE 18:43:34 10° NE
STARLINK-52 2.9 18:38:50 10° SW 18:42:00 63° SE 18:45:11 10° ENE
ATLAS 5 CENTAUR R/B 4.2 18:39:42 10° S 18:43:15 14° SE 18:46:39 12° SE
Cosmos 2184 Rocket 4.0 18:37:00 10° N 18:43:19 83° E 18:49:31 10° S
Cosmos 1726 Rocket 3.5 18:39:55 10° S 18:44:15 65° E 18:48:40 10° NNE
Aureole 1 Rocket 4.1 18:40:18 10° SSW 18:47:59 76° ESE 18:54:02 10° NNE
FREGAT/IRIS 2.3 18:46:43 10° S 18:49:25 81° WSW 18:52:09 10° NNW
Meteor 1-16 Rocket 4.3 18:44:08 10° SSW 18:49:31 78° W 18:55:08 10° N
SJ-6B 2.9 18:45:29 10° SSE 18:49:33 66° ENE 18:53:40 10° N
Meteor 2-17 Rocket 4.5 18:45:49 10° N 18:51:55 62° E 18:58:00 10° SSE
H-2A R/B 2.1 18:48:15 10° S 18:53:28 80° WSW 18:58:34 10° NNW
Cosmos 1943 Rocket 4.2 18:49:26 10° NW 18:54:03 27° WSW 18:58:41 10° SSW
Cosmos 1825 Rocket 3.8 18:49:47 10° NNW 18:54:09 73° W 18:58:28 10° S
Cosmos 921 Rocket 3.6 18:51:27 10° N 18:55:18 35° ENE 18:57:17 23° ESE
Resurs 01 Rocket 2.7 18:54:20 20° ESE 18:56:14 28° ENE 18:59:58 10° N
Nadezhda 1 Rocket 4.0 18:52:40 10° S 18:59:03 81° E 19:05:26 10° N
Cosmos 1461 3.4 18:54:36 10° NNW 18:59:05 54° NE 19:01:46 23° ESE
Cosmos 2228 3.3 18:54:50 10° SSW 18:59:06 72° W 19:03:27 10° N
USA 234 3.9 18:54:12 10° ENE 18:59:50 30° SE 19:05:25 10° S
Cosmos 1300 3.5 19:00:26 25° ESE 19:01:33 30° E 19:04:56 10° NNE
CZ-2C R/B 3.1 18:57:27 10° S 19:02:19 71° WSW 19:07:05 10° NNW
SeaSat 1 4.4 18:58:04 10° N 19:02:27 33° NW 19:06:48 10° WSW
ATLAS 2AS CENTAUR R/B 2.8 18:55:20 10° NW 19:02:57 85° ENE 19:08:25 18° SE
USA 186 2.7 19:02:32 10° S 19:05:46 48° W 19:08:52 10° NNW
Cosmos 2154 Rocket 4.0 18:59:46 10° N 19:06:09 80° E 19:12:28 10° S
Cosmos 2369 Rocket 4.1 19:02:44 10° NW 19:07:32 29° WSW 19:12:17 10° SSW
Ariane Rocket 3.9 19:03:43 10° S 19:08:37 49° W 19:13:32 10° NNW
Cosmos 1140 Rocket 3.4 19:04:57 10° SSW 19:10:08 81° ESE 19:15:20 10° NNE
Hubble Space Telescope 3.0 19:09:26 10° SSW 19:10:33 11° S 19:10:33 11° S
BREEZE M DEB (TANK) 3.9 18:59:42 10° WSW 19:11:36 83° NNW 19:14:50 14° ENE
SL-4 R/B 3.7 19:10:37 10° WNW 19:13:28 24° NNW 19:16:21 10° NE
Cosmos 1340 Rocket 2.8 19:11:47 10° SSW 19:15:50 82° W 19:19:52 10° N
Cosmos 1953 Rocket 4.0 19:12:07 10° NNW 19:16:33 63° W 19:20:58 10° S
Cosmos 1703 4.2 19:13:33 10° NNW 19:17:24 49° W 19:21:13 10° S
STARLINK-1234 3.6 19:14:58 10° NW 19:17:45 36° NNE 19:18:03 35° NE
Cosmos 2058 4.4 19:15:06 10° NNE 19:17:51 20° ENE 19:17:51 20° ENE
STARLINK-1209 3.5 19:15:33 10° NW 19:18:22 38° NNE 19:18:37 37° NE
Cosmos 1190 Rocket 4.3 19:15:03 10° SSW 19:20:21 72° WNW 19:25:39 10° NNE
Spot 2 Rocket 4.5 19:19:29 26° E 19:20:37 29° ENE 19:24:56 10° N
STARLINK-1233 4.0 19:18:58 10° NW 19:21:51 32° NNE 19:22:13 31° NE
STARLINK-1212 4.0 19:19:25 10° NW 19:22:17 32° NNE 19:22:37 31° NE
STARLINK-1105 4.0 19:19:51 10° NW 19:22:45 32° NNE 19:23:04 31° NE
STARLINK-1206 4.0 19:20:21 10° NW 19:23:13 32° NNE 19:23:29 32° NE
STARLINK-1247 4.0 19:20:47 10° NW 19:23:40 32° NNE 19:23:55 32° NE
STARLINK-1227 4.0 19:21:12 10° NW 19:24:06 33° NNE 19:24:22 32° NE
STARLINK-1218 3.9 19:21:41 10° NW 19:24:34 33° NNE 19:24:47 32° NE
STARLINK-1226 3.9 19:22:07 10° NW 19:25:00 33° NNE 19:25:13 33° NE
STARLINK-1254 3.9 19:22:32 10° NW 19:25:28 34° NNE 19:25:40 33° NE
STARLINK-1215 3.9 19:23:02 10° NW 19:25:56 34° NNE 19:26:06 33° NE
STARLINK-1231 3.9 19:23:29 10° NW 19:26:22 34° NNE 19:26:31 34° NE
ERBS 4.3 19:24:01 10° NNW 19:26:23 17° NNE 19:26:51 17° NE
STARLINK-1232 3.9 19:24:23 10° NW 19:27:17 34° NNE 19:27:24 34° NE
STARLINK-1217 3.9 19:24:48 10° NW 19:27:42 35° NNE 19:27:49 35° NE
STARLINK-1208 3.9 19:25:15 10° NW 19:28:11 35° NNE 19:28:17 35° NE
STARLINK-1229 3.9 19:25:43 10° NW 19:28:38 35° NNE 19:28:41 35° NNE
STARLINK-1271 3.9 19:26:09 10° NW 19:29:05 36° NNE 19:29:07 35° NNE
STARLINK-1270 3.8 19:26:37 10° NW 19:29:33 36° NNE 19:29:34 36° NNE
STARLINK-1154 3.8 19:27:03 10° NW 19:29:59 36° NNE 19:29:59 36° NNE
STARLINK-1197 3.8 19:27:58 10° NW 19:30:52 37° NNE 19:30:52 37° NNE
STARLINK-1189 3.8 19:28:24 10° NW 19:31:17 37° NNE 19:31:17 37° NNE
STARLINK-1198 3.8 19:28:53 10° NW 19:31:44 37° NNE 19:31:44 37° NNE
STARLINK-1188 3.8 19:29:17 10° NW 19:32:08 37° NNE 19:32:08 37° NNE
STARLINK-1235 3.4 19:29:54 10° NW 19:32:51 48° NNE 19:32:51 48° NNE
STARLINK-1187 3.6 19:30:21 10° NW 19:33:16 43° NNE 19:33:16 43° NNE
STARLINK-67 3.6 19:31:28 10° NW 19:33:19 42° WNW 19:33:19 42° WNW
STARLINK-1199 3.8 19:31:13 10° NW 19:34:04 39° NNE 19:34:04 39° NNE
DMSP B5D2-2 4.0 19:29:23 10° NNE 19:34:38 86° WNW 19:39:53 10° SSW
Cosmos 1076 Rocket 4.4 19:30:46 10° NNE 19:34:16 32° ENE 19:34:16 32° ENE
STARLINK-1191 3.8 19:31:40 10° NW 19:34:30 39° NNE 19:34:30 39° NNE
STARLINK-1210 3.8 19:32:08 10° NW 19:34:56 39° NNE 19:34:56 39° NNE
STARLINK-1221 3.8 19:32:36 10° NW 19:35:23 39° NNE 19:35:23 39° NNE
STARLINK-1219 3.8 19:33:01 10° NW 19:35:49 40° NNE 19:35:49 40° NNE
STARLINK-1222 3.8 19:33:29 10° NW 19:36:15 40° NNE 19:36:15 40° NNE
STARLINK-1211 3.8 19:33:57 10° NW 19:36:42 40° NNE 19:36:42 40° NNE
Abrixas rocket 2.8 19:34:18 10° NW 19:36:50 43° N 19:36:50 43° N
STARLINK-1214 3.8 19:34:22 10° NW 19:37:06 40° NNE 19:37:06 40° NNE
STARLINK-1245 3.8 19:34:52 10° NW 19:37:32 40° NNE 19:37:32 40° NNE
STARLINK-1238 3.8 19:35:17 10° NW 19:37:59 41° NNE 19:37:59 41° NNE
MetOp-A 4.3 19:34:35 18° S 19:38:33 70° WSW 19:43:55 10° NNW
BREEZE-M DEB (TANK) 2.9 19:34:00 10° WNW 19:38:38 75° NNE 19:38:39 75° NNE
STARLINK-1205 3.8 19:36:13 10° NW 19:38:51 40° N 19:38:51 40° N
STARLINK-1204 3.8 19:36:40 10° NW 19:39:16 40° N 19:39:16 40° N
CZ-2C R/B 2.5 19:38:43 10° NNE 19:43:55 83° WNW 19:49:08 10° SSW
Terra 3.9 19:46:44 14° NE 19:46:44 14° NE 19:48:31 10° NNE
ERS-1 Rocket 4.3 19:47:11 25° ENE 19:47:11 25° ENE 19:50:58 10° NNE
Cosmos 1697 Rocket 4.3 19:43:33 10° N 19:47:36 19° NE 19:48:23 19° ENE
Cosmos 676 Rocket 4.3 19:44:05 10° SSW 19:49:20 67° WNW 19:54:35 10° NNE
Meteor 2-1 Rocket 4.4 19:48:49 46° SE 19:49:56 52° E 19:55:40 10° NNE
Iridium 2 4.0 19:50:40 54° NNE 19:50:40 54° NNE 19:53:46 10° N
Cosmos 192 4.4 19:53:12 10° NNW 19:58:06 58° ENE 19:58:14 58° ENE
COSMOS 2455 3.1 20:01:49 10° NW 20:07:46 62° WSW 20:09:32 44° S
Cosmos 1656 4.1 20:05:38 10° NNW 20:11:05 46° ENE 20:11:09 46° ENE
IGS 5A 4.5 20:13:40 39° NNE 20:13:40 39° NNE 20:16:28 10° N
Cosmos 1980 Rocket 4.0 20:13:25 10° N 20:17:16 18° NE 20:17:17 18° NE
Cosmos 1741 Rocket 3.9 20:18:18 78° ENE 20:18:18 78° ENE 20:23:23 10° NNE
Cosmos 1892 4.1 20:14:46 10° N 20:17:06 34° N 20:17:06 34° N
ATLAS CENTAUR R/B 3.7 20:18:17 10° N 20:19:27 14° NNE 20:19:27 14° NNE
SPOT 1/Viking Rocket 3.7 20:21:22 63° NE 20:21:22 63° NE 20:26:08 10° N
BREEZE M DEB (TANK) 3.5 20:17:59 10° WSW 20:21:32 66° NNW 20:32:34 10° ENE
ATLAS 5 CENTAUR R/B 4.2 20:21:01 10° W 20:24:13 20° NW 20:27:42 10° N
CZ-4C R/B 4.0 20:21:02 10° NNW 20:27:13 31° NE 20:29:18 27° ENE
Cosmos 1763 Rocket 3.7 20:26:31 10° NNW 20:30:58 64° N 20:30:58 64° N
Resurs 01 Rocket 3.3 20:31:53 26° WSW 20:32:38 27° W 20:36:26 10° NW
Cosmos 2218 Rocket 4.4 20:32:05 10° NNW 20:38:09 58° W 20:39:41 46° SW
Meteor 2-12 Rocket 4.4 20:34:03 10° NNW 20:40:08 75° W 20:40:31 72° SW
Landsat 7 4.5 20:42:04 53° NW 20:42:04 53° NW 20:45:51 10° NNW
Iridium 4 Rocket 4.4 20:39:02 10° NNW 20:41:55 36° NW 20:41:55 36° NW
USA 234 3.3 20:36:39 10° NE 20:43:11 78° NW 20:49:43 10° WSW
Cosmos 2082 Rocket 4.3 20:49:07 14° NE 20:49:07 14° NE 20:50:01 10° NE
Cosmos 1833 Rocket 4.1 20:56:29 29° NNE 20:56:29 29° NNE 20:59:08 10° NNE
RESURS DK-1 4.4 20:49:56 10° NNW 20:51:45 25° NNW 20:51:45 25° NNW
Meteor 2-10 Rocket 4.3 20:58:38 48° N 20:58:38 48° N 21:02:37 10° N
COSMOS 2406 3.9 21:08:16 51° WNW 21:08:16 51° WNW 21:13:49 10° NNE
Nadezhda 3 Rocket 4.3 21:15:55 63° NW 21:15:55 63° NW 21:21:23 10° N
Terra 3.6 21:25:37 28° NNW 21:25:37 28° NNW 21:27:56 10° NNW
Cosmos 1697 Rocket 3.8 21:26:29 10° NNW 21:30:07 40° NW 21:30:07 40° NW
SL-16 R/B 4.1 21:47:17 10° N 21:50:12 24° NNE 21:50:12 24° NNE
Cosmos 2322 Rocket 4.1 21:55:04 10° N 21:57:48 22° NNE 21:57:48 22° NNE
Mayak 1.9 21:56:09 10° N 21:56:22 11° N 21:56:22 11° N
Cosmos 1980 Rocket 3.8 21:56:16 10° NNW 21:59:03 30° NNW 21:59:03 30° NNW
CZ-4C R/B 3.5 22:09:06 10° NW 22:14:28 53° NW 22:14:28 53° NW
Cosmos 2082 Rocket 4.1 22:30:55 25° NNW 22:30:55 25° NNW 22:33:58 10° N
Cosmos 2344 4.4 22:38:45 10° NW 22:48:33 73° WSW 22:48:33 73° WSW
Cosmos 2360 Rocket 4.4 23:33:06 10° NNW 23:34:46 20° NNW 23:34:46 20° NNW
